ASI232 RJFF-RJTT

Flight info

Callsign ASI232
Flight time 0h 26m
Altitude 41000
Route IPRIR Y231 OMKAT Y235 FLUTE Y23 ARTIC Y71 XAC
Aircraft A35K/H-SDE2E3GHIJ3J4J5LM1ORWXY/LB1D1

Departure

Time 2026-05-07 15:38
Airport Fukuoka Airport (RJFF)

Arrival

Time 2026-05-07 16:05
Airport Tokyo Haneda International Airport (RJTT)
Time Latitude Longitude Altitude Speed Heading
2026-05-07 15:21 33.58333 130.44728 37 ft 0 kts 247°
2026-05-07 15:35 33.58339 130.44746 36 ft 3 kts 261°
2026-05-07 15:35 33.58340 130.44765 33 ft 0 kts 292°
2026-05-07 15:35 33.58339 130.44768 35 ft 3 kts 297°
2026-05-07 15:35 33.58328 130.44786 33 ft 3 kts 330°
2026-05-07 15:36 33.58326 130.44788 34 ft 0 kts 337°
2026-05-07 15:36 33.58325 130.44789 34 ft 3 kts 345°
2026-05-07 15:36 33.58379 130.44763 36 ft 13 kts 333°
2026-05-07 15:37 33.58483 130.44691 35 ft 21 kts 330°
2026-05-07 15:37 33.58632 130.44589 34 ft 28 kts 330°
2026-05-07 15:37 33.58820 130.44472 33 ft 30 kts
2026-05-07 15:37 33.59590 130.44394 28 ft 0 kts 151°
2026-05-07 15:38 33.59545 130.44423 28 ft 34 kts 152°
2026-05-07 15:38 33.59003 130.44793 32 ft 142 kts 148°
2026-05-07 15:38 33.57940 130.45600 339 ft 211 kts 147°
2026-05-07 15:38 33.56726 130.46855 1043 ft 249 kts 131°
2026-05-07 15:39 33.55766 130.48716 1999 ft 275 kts 116°
2026-05-07 15:39 33.55284 130.50892 3017 ft 267 kts 99°
2026-05-07 15:39 33.55283 130.53081 3951 ft 263 kts 85°
2026-05-07 15:39 33.55753 130.55237 4828 ft 274 kts 72°
2026-05-07 15:40 33.56532 130.57369 5637 ft 285 kts 63°
2026-05-07 15:40 33.57467 130.59530 6303 ft 299 kts 64°
2026-05-07 15:40 33.58475 130.61736 6989 ft 308 kts 53°
2026-05-07 15:40 33.59795 130.63818 7944 ft 313 kts 51°
2026-05-07 15:41 33.61162 130.65995 8174 ft 348 kts 51°
2026-05-07 15:41 33.62595 130.68335 8282 ft 343 kts 53°
2026-05-07 15:41 33.63644 130.70877 8582 ft 346 kts 77°
2026-05-07 15:41 33.63852 130.73721 9494 ft 338 kts 89°
2026-05-07 15:42 33.63983 130.76550 10366 ft 336 kts 85°
2026-05-07 15:42 33.64235 130.79356 10701 ft 350 kts 83°
2026-05-07 15:42 33.65491 130.88366 11844 ft 380 kts 79°
2026-05-07 15:42 33.67473 131.00947 13991 ft 394 kts 81°
2026-05-07 15:43 33.69567 131.14159 15769 ft 411 kts 81°
2026-05-07 15:43 33.71728 131.27875 17587 ft 427 kts 82°
2026-05-07 15:43 33.73948 131.42063 19411 ft 434 kts 82°
2026-05-07 15:43 33.76186 131.56489 20959 ft 444 kts 82°
2026-05-07 15:44 33.78455 131.71228 22544 ft 453 kts 82°
2026-05-07 15:44 33.80752 131.86278 23862 ft 463 kts 81°
2026-05-07 15:44 33.83083 132.01683 25001 ft 472 kts 81°
2026-05-07 15:44 33.85436 132.17370 26211 ft 478 kts 81°
2026-05-07 15:45 33.87802 132.33290 27358 ft 488 kts 81°
2026-05-07 15:45 33.90193 132.49533 28688 ft 496 kts 81°
2026-05-07 15:45 33.92601 132.66043 30067 ft 505 kts 81°
2026-05-07 15:45 33.95027 132.82841 31351 ft 514 kts 81°
2026-05-07 15:46 33.99963 133.17525 33888 ft 532 kts 81°
2026-05-07 15:46 34.02446 133.35289 34834 ft 542 kts 80°
2026-05-07 15:47 34.07407 133.71333 34916 ft 558 kts 81°
2026-05-07 15:47 34.12390 134.08365 34918 ft 557 kts 81°
2026-05-07 15:48 34.17228 134.45204 34905 ft 556 kts 81°
2026-05-07 15:48 34.21947 134.82000 35614 ft 554 kts 81°
2026-05-07 15:48 34.24180 134.99733 34882 ft 536 kts 81°
2026-05-07 15:49 34.26451 135.17986 34911 ft 554 kts 81°
2026-05-07 15:49 34.30916 135.54653 34906 ft 554 kts 82°
2026-05-07 15:50 34.35344 135.91786 34907 ft 555 kts 82°
2026-05-07 15:50 34.39601 136.28550 34900 ft 554 kts 83°
2026-05-07 15:51 34.43776 136.65592 34889 ft 554 kts 83°
2026-05-07 15:51 34.47826 137.02559 34891 ft 553 kts 84°
2026-05-07 15:52 34.51771 137.39614 34900 ft 553 kts 84°
2026-05-07 15:52 34.55593 137.76591 34905 ft 552 kts 84°
2026-05-07 15:53 34.59284 138.13416 34924 ft 550 kts 85°
2026-05-07 15:53 34.61078 138.31722 33709 ft 543 kts 85°
2026-05-07 15:53 34.62866 138.50291 28838 ft 555 kts 85°
2026-05-07 15:53 34.64587 138.68423 26000 ft 527 kts 85°
2026-05-07 15:54 34.66202 138.85720 23310 ft 505 kts 84°
2026-05-07 15:54 34.67723 139.02261 20410 ft 482 kts 85°
2026-05-07 15:54 34.69146 139.17963 18367 ft 443 kts 85°
2026-05-07 15:54 34.70398 139.31964 16995 ft 400 kts 85°
2026-05-07 15:55 34.72757 139.44874 14650 ft 393 kts 62°
2026-05-07 15:55 34.78106 139.56428 12896 ft 389 kts 62°
2026-05-07 15:55 34.83407 139.67809 12895 ft 387 kts 53°
2026-05-07 15:55 34.92730 139.73233 11624 ft 372 kts 14°
2026-05-07 15:56 35.01646 139.79062 9489 ft 363 kts 43°
2026-05-07 15:56 35.08313 139.87064 8436 ft 320 kts 43°
2026-05-07 15:56 35.14570 139.94531 6918 ft 310 kts 43°
2026-05-07 15:56 35.18744 139.99537 6874 ft 311 kts 42°
2026-05-07 15:57 35.24838 140.06854 6869 ft 310 kts 42°
2026-05-07 15:57 35.30294 140.13428 6875 ft 258 kts 42°
2026-05-07 15:57 35.35379 140.19553 6994 ft 256 kts 41°
2026-05-07 15:57 35.40947 140.21275 6060 ft 187 kts 341°
2026-05-07 15:58 35.45864 140.20210 4511 ft 179 kts 341°
2026-05-07 15:58 35.50824 140.19127 3997 ft 180 kts 343°
2026-05-07 15:58 35.55672 140.18068 3996 ft 177 kts 342°
2026-05-07 15:58 35.60525 140.17008 3995 ft 177 kts 342°
2026-05-07 15:59 35.65361 140.15948 4003 ft 175 kts 345°
2026-05-07 15:59 35.69141 140.12786 4003 ft 165 kts 305°
2026-05-07 15:59 35.72106 140.08461 4001 ft 165 kts 306°
2026-05-07 15:59 35.75095 140.04138 4008 ft 165 kts 306°
2026-05-07 16:00 35.78078 139.99819 4009 ft 165 kts 305°
2026-05-07 16:00 35.77236 139.95262 4014 ft 161 kts 217°
2026-05-07 16:00 35.73520 139.92136 4011 ft 162 kts 217°
2026-05-07 16:00 35.69849 139.88984 3682 ft 158 kts 217°
2026-05-07 16:01 35.66127 139.85778 2008 ft 158 kts 217°
2026-05-07 16:01 35.62970 139.83057 1198 ft 162 kts 216°
2026-05-07 16:01 35.61445 139.81755 973 ft 155 kts 215°
2026-05-07 16:01 35.60482 139.81147 841 ft 155 kts 208°
2026-05-07 16:02 35.59609 139.80373 713 ft 156 kts 220°
2026-05-07 16:02 35.58803 139.79547 475 ft 145 kts 217°
2026-05-07 16:02 35.58011 139.78791 144 ft 143 kts 211°
2026-05-07 16:02 35.57234 139.78117 48 ft 133 kts 212°
2026-05-07 16:03 35.56490 139.77487 42 ft 131 kts 210°
2026-05-07 16:03 35.55739 139.76842 31 ft 134 kts 214°
2026-05-07 16:03 35.54977 139.76224 114 ft 130 kts 211°
2026-05-07 16:03 35.54132 139.75845 262 ft 134 kts 184°
2026-05-07 16:04 35.53371 139.75429 742 ft 928 kts 270°
2026-05-07 16:04 35.53778 139.75448 733 ft 129 kts 45°
2026-05-07 16:04 35.54632 139.76021 384 ft 153 kts 24°
2026-05-07 16:04 35.55584 139.76662 34 ft 152 kts 37°
2026-05-07 16:05 35.56196 139.77229 31 ft 62 kts 28°
2026-05-07 16:05 35.56333 139.77324 231 ft 0 kts 228°
2026-05-07 16:05 35.55891 139.76763 1230 ft 180 kts 225°
2026-05-07 16:05 35.55270 139.76016 2725 ft 90 kts 228°
2026-05-07 16:06 35.54777 139.75405 1939 ft 133 kts 228°
2026-05-07 16:06 35.54117 139.74657 1792 ft 118 kts 216°
2026-05-07 16:06 35.53392 139.74244 1469 ft 119 kts 195°
2026-05-07 16:06 35.52561 139.74270 1074 ft 129 kts 164°
2026-05-07 16:07 35.51737 139.74732 729 ft 132 kts 151°
2026-05-07 16:07 35.51022 139.75347 581 ft 118 kts 141°
2026-05-07 16:07 35.50478 139.76019 385 ft 108 kts 134°
2026-05-07 16:07 35.50040 139.76727 216 ft 102 kts 126°
2026-05-07 16:08 35.49717 139.77485 60 ft 98 kts 116°
2026-05-07 16:08 35.49497 139.78254 101 ft 103 kts 123°
2026-05-07 16:08 35.48983 139.79277 276 ft 167 kts 130°
2026-05-07 16:08 35.48348 139.80375 311 ft 149 kts 131°
2026-05-07 16:09 35.47783 139.81389 172 ft 142 kts 128°
2026-05-07 16:09 35.47254 139.82396 28 ft 137 kts 124°
2026-05-07 16:09 35.46819 139.83363 18 ft 124 kts 123°
2026-05-07 16:09 35.46605 139.83875 12 ft 103 kts 116°